This is the latest recevied weather packets stored in our database for station/object KE8RXN. If no packets are shown the sender has not sent any weather packets the latest 10 day(s).
| Time | Temp. | Humidity | Pressure | Rain* | Wind** | Luminosity | Snow |
|---|---|---|---|---|---|---|---|
| 1778100267 | 13.33° C | 38% | 1016.5 hPa | 0 mm | - | 610 W/m² | - |
| 1778099964 | 12.78° C | 37% | 1016.4 hPa | 0 mm | - | 594 W/m² | - |
| 1778099661 | 12.78° C | 38% | 1016.4 hPa | 0 mm | - | 566 W/m² | - |
| 1778099358 | 13.33° C | 37% | 1016.4 hPa | 0 mm | - | 598 W/m² | - |
| 1778099055 | 13.33° C | 37% | 1016.4 hPa | 0 mm | - | 601 W/m² | - |
| 1778098751 | 12.78° C | 36% | 1016.3 hPa | 0 mm | - | 566 W/m² | - |
| 1778098449 | 13.33° C | 36% | 1016.5 hPa | 0 mm | - | 580 W/m² | - |
| 1778098146 | 13.89° C | 37% | 1016.5 hPa | 0 mm | - | 560 W/m² | - |
| 1778097842 | 13.33° C | 37% | 1016.5 hPa | 0 mm | - | 580 W/m² | - |
| 1778097538 | 12.78° C | 37% | 1016.5 hPa | 0 mm | - | 642 W/m² | - |
| 1778097236 | 12.78° C | 35% | 1016.6 hPa | 0 mm | - | 666 W/m² | - |
| 1778096932 | 12.22° C | 38% | 1016.8 hPa | 0 mm | - | 638 W/m² | - |
| 1778096629 | 12.78° C | 36% | 1016.4 hPa | 0 mm | - | 134 W/m² | - |
| 1778096327 | 13.33° C | 35% | 1016.6 hPa | 0 mm | - | 471 W/m² | - |
| 1778096023 | 13.33° C | 38% | 1016.6 hPa | 0 mm | - | 657 W/m² | - |
| 1778095719 | 12.78° C | 37% | 1016.8 hPa | 0 mm | - | 662 W/m² | - |
| 1778095416 | 13.33° C | 35% | 1016.8 hPa | 0 mm | - | 487 W/m² | - |
| 1778095113 | 12.22° C | 37% | 1016.6 hPa | 0 mm | - | 613 W/m² | - |
| 1778094809 | 12.78° C | 36% | 1016.7 hPa | 0 mm | - | 678 W/m² | - |
| 1778094507 | 12.78° C | 37% | 1016.5 hPa | 0 mm | - | 734 W/m² | - |
| 1778094203 | 12.22° C | 39% | 1016.8 hPa | 0 mm | - | 746 W/m² | - |
| 1778093900 | 12.22° C | 38% | 1016.7 hPa | 0 mm | - | 686 W/m² | - |
| 1778093597 | 12.22° C | 38% | 1016.6 hPa | 0 mm | - | 737 W/m² | - |
| 1778093294 | 12.22° C | 39% | 1016.7 hPa | 0 mm | - | 752 W/m² | - |
| 1778092991 | 11.67° C | 40% | 1016.7 hPa | 0 mm | - | 541 W/m² | - |
* Rain latest hour (hover to see other rain measurements)
** Current wind speed in m/s (hover to see current wind gust speed)